New London, NC

10:06 PM EST on February 19, 2017 (GMT -0500)
Stanly County

Weather History for KVUJ - March, 2014

Change the Weather History Date:

Friday, March 7, 2014

  Actual Average (KHBI) Record (KHBI)
Temperature  
Mean Temperature 36 °F -  
Max Temperature 41 °F 60 °F 86 °F (1974)
Min Temperature 30 °F 38 °F 16 °F (1960)
Degree Days  
Heating Degree Days 30    
Moisture  
Dew Point 35 °F    
Average Humidity 98    
Maximum Humidity 100    
Minimum Humidity 89    
Precipitation  
Precipitation 1.59 in - - ()
Sea Level Pressure  
Sea Level Pressure 29.99 in    
Wind  
Wind Speed 14 mph (NNE)    
Max Wind Speed 22 mph    
Max Gust Speed 33 mph    
Visibility 8 miles    
Events Rain , Snow    
Averages and records for this station are not official NWS values.
T = Trace of Precipitation, MM = Missing Value Source: NWS Daily Summary

Daily Weather History Graph

Daily Weather History Graph

Search for Another Location

Airport or City:

Trip Planner

Search our weather history database for the weather conditions in past years. The results will help you decide how hot, cold, wet, or windy it might be!

Date:

Astronomy

Mar. 07, 2014 Rise Set
Actual Time 6:42 AM EST 6:21 PM EST
Civil Twilight 6:16 AM EST 6:46 PM EST
Nautical Twilight 5:47 AM EST 7:16 PM EST
Astronomical Twilight 5:18 AM EST 7:45 PM EST
Moon 10:47 AM EST (3/7) 12:12 AM EST (3/7)
Length of Visible Light 12h 29m
Length of Day
11h 38m
Waxing Crescent, 42% of the Moon is Illuminated
Mar 7
Waxing Crescent
Mar 8
First Quarter
Mar 16
Full
Mar 23
Last Quarter
Mar 30
New

Hourly Weather History & Observations

Time (EST) Temp. Windchill Dew Point Humidity Pressure Visibility Wind Dir Wind Speed Gust Speed Precip Events Conditions
12:15 AM 33.3 °F 22.1 °F 32.9 °F 99% 30.06 in 10.0 mi NNE 18.4 mph 33.4 mph 0.03 in Snow Light Snow
12:35 AM 33.3 °F 21.8 °F 32.9 °F 99% 30.04 in 4.0 mi NNE 19.6 mph 31.1 mph 0.08 in Rain Light Rain
12:55 AM 33.3 °F 23.2 °F 33.1 °F 99% 30.05 in 7.0 mi NNE 15.0 mph 24.2 mph 0.12 in Rain Light Rain
1:15 AM 33.6 °F 23.3 °F 33.3 °F 99% 30.05 in 7.0 mi NNE 16.1 mph 26.5 mph 0.02 in Rain Rain
1:35 AM 33.8 °F 21.9 °F 33.4 °F 99% 30.02 in 7.0 mi NNE 21.9 mph 27.6 mph 0.07 in Rain Rain
1:55 AM 33.8 °F 22.8 °F 33.4 °F 99% 30.00 in 10.0 mi NNE 18.4 mph 33.4 mph 0.10 in Rain Light Rain
2:15 AM 33.8 °F 23.2 °F 33.4 °F 99% 29.98 in 10.0 mi NNE 17.3 mph 31.1 mph N/A Rain Light Rain
2:35 AM 34.0 °F 22.4 °F 33.8 °F 99% 29.98 in 10.0 mi NNE 20.7 mph 31.1 mph 0.01 in Rain Light Rain
2:55 AM 34.2 °F 24.0 °F 33.8 °F 99% 30.01 in 10.0 mi NNE 16.1 mph 25.3 mph 0.01 in   Overcast
3:15 AM 34.2 °F 24.4 °F 33.8 °F 99% 29.99 in 10.0 mi NNE 15.0 mph 27.6 mph N/A   Overcast
3:35 AM 34.2 °F 23.6 °F 33.8 °F 99% 29.99 in 10.0 mi NNE 17.3 mph 24.2 mph N/A   Drizzle
3:55 AM 34.2 °F 24.8 °F 33.8 °F 99% 30.00 in 10.0 mi NNE 13.8 mph 24.2 mph N/A Rain Rain
4:15 AM 34.2 °F 23.6 °F 33.8 °F 99% 29.99 in 10.0 mi NNE 17.3 mph 23.0 mph N/A Rain Light Rain
4:35 AM 34.2 °F 24.0 °F 33.8 °F 99% 29.99 in 10.0 mi NNE 16.1 mph 29.9 mph 0.02 in Snow Light Snow
4:55 AM 34.2 °F 24.4 °F 34.0 °F 99% 29.99 in 7.0 mi North 15.0 mph 25.3 mph 0.04 in Rain Light Rain
5:15 AM 34.2 °F 25.2 °F 34.0 °F 99% 29.99 in 10.0 mi NNE 12.7 mph 27.6 mph 0.02 in Rain Rain
5:35 AM 34.2 °F 25.7 °F 34.0 °F 99% 30.00 in 7.0 mi North 11.5 mph 17.3 mph 0.05 in Rain Light Rain
5:55 AM 34.2 °F 24.0 °F 34.0 °F 99% 29.99 in 7.0 mi NNE 16.1 mph 21.9 mph 0.08 in Rain Light Rain
6:15 AM 34.0 °F 25.0 °F 33.8 °F 99% 30.00 in 4.0 mi NNE 12.7 mph 19.6 mph 0.04 in Rain Light Rain
6:35 AM 33.8 °F 24.8 °F 33.6 °F 99% 30.00 in 7.0 mi North 12.7 mph 21.9 mph 0.08 in   Overcast
6:55 AM 33.8 °F 24.8 °F 33.6 °F 99% 30.00 in 4.0 mi NNE 12.7 mph 20.7 mph 0.14 in   Overcast
7:15 AM 33.8 °F 25.3 °F 33.8 °F 100% 30.00 in 5.0 mi NNE 11.5 mph 20.7 mph 0.03 in Rain Light Rain
7:35 AM 33.8 °F 23.9 °F 33.6 °F 99% 30.01 in 4.0 mi NNE 15.0 mph 21.9 mph 0.07 in Snow Snow
7:55 AM 33.8 °F 24.3 °F 33.8 °F 100% 30.01 in 3.0 mi NNE 13.8 mph 20.7 mph 0.12 in   Overcast
8:15 AM 33.8 °F 23.9 °F 33.8 °F 100% 30.01 in 7.0 mi NNE 15.0 mph 23.0 mph 0.02 in Rain Rain
8:35 AM 33.8 °F 23.5 °F 33.8 °F 100% 30.01 in 5.0 mi NNE 16.1 mph 19.6 mph 0.06 in Rain Rain
8:55 AM 33.8 °F 24.3 °F 33.8 °F 100% 30.01 in 3.0 mi NNE 13.8 mph 23.0 mph 0.12 in   Overcast
9:15 AM 33.8 °F 23.9 °F 33.8 °F 100% 30.02 in 3.0 mi NNE 15.0 mph 20.7 mph 0.05 in Rain Rain
9:35 AM 33.8 °F 24.8 °F 33.8 °F 100% 30.02 in 4.0 mi NNE 12.7 mph 21.9 mph 0.09 in Rain Rain
9:55 AM 33.8 °F 23.9 °F 33.8 °F 100% 30.01 in 2.5 mi NNE 15.0 mph 24.2 mph 0.16 in Rain Light Rain
10:15 AM 33.8 °F 23.9 °F 33.8 °F 100% 30.01 in 1.8 mi North 15.0 mph 23.0 mph 0.08 in   Overcast
10:35 AM 33.8 °F 23.2 °F 33.8 °F 100% 30.01 in 1.2 mi North 17.3 mph 23.0 mph 0.17 in   Overcast
10:55 AM 34.3 °F 24.2 °F 34.2 °F 99% 30.01 in 2.0 mi NNE 16.1 mph 24.2 mph 0.26 in   Overcast
11:15 AM 34.7 °F 25.9 °F 34.7 °F 100% 30.02 in 1.8 mi NNE 12.7 mph 17.3 mph 0.05 in   Overcast
11:35 AM 34.7 °F 26.9 °F 34.7 °F 100% 30.01 in 2.5 mi NNE 10.4 mph 18.4 mph 0.12 in Rain Heavy Rain
11:55 AM 34.7 °F 25.9 °F 34.5 °F 99% 30.00 in 4.0 mi North 12.7 mph 23.0 mph 0.16 in Rain Rain
12:15 PM 34.7 °F 26.9 °F 34.7 °F 100% 29.99 in 5.0 mi NNE 10.4 mph 19.6 mph 0.03 in Rain Rain
12:35 PM 35.1 °F 26.4 °F 34.9 °F 99% 29.97 in 7.0 mi North 12.7 mph 20.7 mph 0.06 in Rain Rain
12:55 PM 35.2 °F 26.2 °F 34.9 °F 99% 29.97 in 7.0 mi NNE 13.8 mph 27.6 mph 0.09 in Rain Rain
1:15 PM 35.6 °F 26.6 °F 35.4 °F 99% 29.96 in 10.0 mi North 13.8 mph 20.7 mph 0.02 in Rain Light Rain
1:35 PM 36.1 °F 26.9 °F 35.8 °F 99% 29.96 in 7.0 mi North 15.0 mph 21.9 mph 0.06 in Rain Rain
1:55 PM 36.7 °F 28.4 °F 36.5 °F 99% 29.95 in 7.0 mi North 12.7 mph 20.7 mph 0.09 in Rain Rain
2:15 PM 37.0 °F 28.1 °F 36.7 °F 99% 29.95 in 10.0 mi North 15.0 mph 20.7 mph 0.02 in Rain Rain
2:35 PM 37.4 °F 29.8 °F 36.9 °F 98% 29.95 in 7.0 mi North 11.5 mph 20.7 mph 0.04 in Rain Rain
2:55 PM 37.6 °F 29.6 °F 37.4 °F 99% 29.95 in 10.0 mi North 12.7 mph 17.3 mph 0.07 in Rain Rain
3:15 PM 38.3 °F 30.9 °F 37.8 °F 98% 29.96 in 10.0 mi North 11.5 mph 16.1 mph 0.02 in Rain Light Rain
3:35 PM 38.8 °F 31.6 °F 38.3 °F 98% 29.96 in 10.0 mi North 11.5 mph 20.7 mph 0.03 in Rain Light Rain
3:50 PM 38.8 °F 32.1 °F 38.3 °F 98% 29.96 in 10.0 mi North 10.4 mph 17.3 mph 0.03 in Rain Light Rain
4:15 PM 39.4 °F 31.4 °F 39.0 °F 99% 29.96 in 10.0 mi North 13.8 mph 18.4 mph N/A Rain Light Rain
4:35 PM 40.3 °F 32.6 °F 39.6 °F 97% 29.96 in 10.0 mi North 13.8 mph 20.7 mph N/A Rain Light Rain
4:55 PM 40.8 °F 33.7 °F 39.6 °F 95% 29.96 in 10.0 mi North 12.7 mph 20.7 mph N/A   Overcast
5:15 PM 41.0 °F 34.3 °F 39.4 °F 94% 29.97 in 10.0 mi North 11.5 mph 21.9 mph N/A   Scattered Clouds
5:35 PM 41.4 °F 35.2 °F 39.4 °F 93% 29.97 in 10.0 mi North 10.4 mph 19.6 mph N/A   Mostly Cloudy
5:55 PM 41.0 °F 35.2 °F 39.2 °F 93% 29.97 in 10.0 mi North 9.2 mph - N/A   Overcast
6:15 PM 40.3 °F 34.9 °F 38.3 °F 93% 29.97 in 10.0 mi NNE 8.1 mph - N/A   Scattered Clouds
6:35 PM 39.7 °F 34.9 °F 37.9 °F 93% 29.97 in 10.0 mi North 6.9 mph - N/A   Clear
6:55 PM 39.4 °F 33.8 °F 37.4 °F 93% 29.98 in 10.0 mi North 8.1 mph - N/A   Clear
7:15 PM 38.8 °F 34.6 °F 36.5 °F 91% 29.97 in 10.0 mi North 5.8 mph - N/A   Clear
7:35 PM 38.3 °F 34.8 °F 36.0 °F 91% 29.99 in 10.0 mi North 4.6 mph - N/A   Clear
7:55 PM 38.3 °F 34.8 °F 36.0 °F 91% 30.00 in 10.0 mi NW 4.6 mph - N/A   Clear
8:15 PM 38.5 °F 35.0 °F 35.8 °F 90% 30.01 in 10.0 mi NW 4.6 mph - N/A   Clear
8:30 PM 38.3 °F 33.9 °F 35.6 °F 90% 30.00 in 10.0 mi NNW 5.8 mph - N/A   Clear
8:55 PM 38.7 °F 35.2 °F 35.6 °F 89% 30.01 in 10.0 mi North 4.6 mph - N/A   Clear
9:15 PM 38.3 °F 35.9 °F 35.6 °F 90% 30.02 in 10.0 mi North 3.5 mph - N/A   Clear
9:35 PM 36.1 °F - 34.7 °F 94% 30.02 in 10.0 mi Calm Calm - N/A   Clear
9:55 PM 33.8 °F - 33.8 °F 100% 30.02 in 10.0 mi Calm Calm - N/A   Clear
10:15 PM 32.5 °F - 32.5 °F 100% 30.01 in 10.0 mi Calm Calm - N/A   Clear
10:35 PM 32.0 °F - 32.0 °F 100% 30.01 in 10.0 mi Calm Calm - N/A   Clear
10:55 PM 32.2 °F - 32.2 °F 100% 30.01 in 10.0 mi Calm Calm - N/A   Clear
11:15 PM 30.7 °F - 30.7 °F 100% 30.01 in 10.0 mi Calm Calm - N/A   Clear
11:35 PM 30.7 °F - 30.7 °F 100% 30.02 in 7.0 mi Calm Calm - N/A   Clear
11:55 PM 30.7 °F - 30.7 °F 100% 30.02 in 7.0 mi Calm Calm - N/A   Clear